Location: Newark
(41.8083°N, 72.2500°W)
Time: 02:40:52
(UTC+00:00)

A-11 Canister half - All Passes

Search period start: 28 November 2021 00:00
Search period end: 08 December 2021 00:00
Orbit: 1524 x 1684 km, 47.3° (Epoch: 27 November)

Date Brightness Start Highest point End Pass type
(mag) Time Alt. Az. Time Alt. Az. Time Alt. Az.
28 Nov - 05:09:16 10° SSE 05:15:16 18° SE 05:21:13 10° E visible
28 Nov - 07:08:58 10° SW 07:18:51 59° SE 07:28:34 10° ENE visible
28 Nov - 09:13:49 10° WSW 09:23:59 74° NNW 09:33:53 10° ENE visible
28 Nov - 11:20:05 10° WNW 11:30:04 66° N 11:39:43 10° E visible
28 Nov - 13:25:43 10° WNW 13:35:35 78° SSW 13:45:05 10° SE daylight
28 Nov - 15:31:51 10° WNW 15:39:31 28° SW 15:47:01 10° S daylight
29 Nov - 04:48:05 10° SSE 04:53:40 16° ESE 04:59:12 10° E night (unlit)
29 Nov - 06:47:21 10° SW 06:57:10 56° SE 07:06:51 10° ENE visible
29 Nov - 08:52:04 10° WSW 09:02:14 75° NNW 09:12:11 10° ENE visible
29 Nov - 10:58:19 10° WNW 11:08:20 66° N 11:18:00 10° E visible
29 Nov - 13:03:59 10° WNW 13:13:54 80° SSW 13:23:27 10° SE daylight
29 Nov - 15:10:02 10° WNW 15:17:55 29° SW 15:25:38 10° S daylight
30 Nov - 04:26:59 10° SSE 04:32:04 15° ESE 04:37:07 10° E night (unlit)
30 Nov - 06:25:45 10° SSW 06:35:31 54° SE 06:45:09 10° ENE visible
30 Nov - 08:30:19 10° WSW 08:40:31 77° NNW 08:50:29 10° ENE visible
30 Nov - 10:36:34 10° WNW 10:46:35 65° N 10:56:17 10° E visible
30 Nov - 12:42:16 10° WNW 12:52:14 83° SSW 13:01:49 10° ESE daylight
30 Nov - 14:48:13 10° WNW 14:56:19 31° SW 15:04:14 10° S daylight
01 Dec - 04:05:58 10° SSE 04:10:28 14° ESE 04:14:57 10° E night (unlit)
01 Dec - 06:04:09 10° SSW 06:13:50 52° SE 06:23:25 10° ENE visible
01 Dec - 08:08:34 10° WSW 08:18:47 78° NNW 08:28:47 10° ENE visible
01 Dec - 10:14:48 10° WNW 10:24:51 65° N 10:34:34 10° E visible
01 Dec - 12:20:33 10° WNW 12:30:33 85° SSW 12:40:10 10° ESE daylight
01 Dec - 14:26:24 10° WNW 14:34:43 33° SW 14:42:48 10° S daylight
02 Dec - 03:45:05 10° SE 03:48:52 13° ESE 03:52:40 10° E night (unlit)
02 Dec - 05:42:34 10° SSW 05:52:10 49° SE 06:01:42 10° ENE visible
02 Dec - 07:46:49 10° WSW 07:57:03 80° NNW 08:07:05 10° ENE visible
02 Dec - 09:53:01 10° WNW 10:03:06 65° N 10:12:51 10° E visible
02 Dec - 11:58:48 10° WNW 12:08:51 87° SSW 12:18:31 10° ESE daylight
02 Dec - 14:04:37 10° WNW 14:13:06 35° SW 14:21:22 10° SSE daylight
03 Dec - 03:24:23 10° SE 03:27:17 11° ESE 03:30:10 10° ESE night (unlit)
03 Dec - 05:21:00 10° SSW 05:30:30 47° SE 05:39:58 10° ENE visible
03 Dec - 07:25:05 10° WSW 07:35:19 82° NNW 07:45:24 10° ENE visible
03 Dec - 09:31:16 10° W 09:41:21 64° N 09:51:08 10° E visible
03 Dec - 11:37:05 10° WNW 11:47:10 90° SSW 11:56:51 10° ESE daylight
03 Dec - 13:42:49 10° WNW 13:51:30 37° SW 13:59:55 10° SSE daylight
04 Dec - 03:04:18 10° SE 03:05:42 10° ESE 03:07:06 10° ESE night (unlit)
04 Dec - 04:59:27 10° SSW 05:08:51 45° SE 05:18:14 10° ENE visible
04 Dec - 07:03:22 10° WSW 07:13:35 84° NNW 07:23:41 10° ENE visible
04 Dec - 09:09:30 10° W 09:19:35 64° N 09:29:24 10° E visible
04 Dec - 11:15:21 10° WNW 11:25:28 88° NNE 11:35:11 10° ESE visible
04 Dec - 13:21:03 10° WNW 13:29:53 39° SW 13:38:26 10° SSE daylight
05 Dec - 04:37:54 10° SSW 04:47:12 43° SE 04:56:30 10° ENE night (unlit)
05 Dec - 06:41:38 10° WSW 06:51:52 85° NNW 07:01:59 10° ENE visible
05 Dec - 08:47:44 10° W 08:57:51 64° N 09:07:41 10° E visible
05 Dec - 10:53:38 10° WNW 11:03:45 86° NNE 11:13:31 10° ESE visible
05 Dec - 12:59:17 10° WNW 13:08:15 41° SW 13:16:57 10° SSE daylight
06 Dec - 04:16:22 10° SSW 04:25:33 41° SE 04:34:44 10° ENE night (unlit)
06 Dec - 06:19:55 10° WSW 06:30:09 87° NNW 06:40:17 10° ENE visible
06 Dec - 08:25:58 10° W 08:36:05 64° N 08:45:58 10° E visible
06 Dec - 10:31:53 10° WNW 10:42:02 84° NNE 10:51:50 10° ESE visible
06 Dec - 12:37:30 10° WNW 12:46:37 43° SW 12:55:27 10° SSE daylight
07 Dec - 03:54:51 10° SSW 04:03:54 39° SE 04:12:58 10° ENE night (unlit)
07 Dec - 05:58:12 10° WSW 06:08:25 89° NNW 06:18:34 10° ENE visible
07 Dec - 08:04:12 10° W 08:14:19 64° N 08:24:14 10° E visible
07 Dec - 10:10:10 10° WNW 10:20:19 82° NNE 10:30:09 10° ESE visible
07 Dec - 12:15:45 10° WNW 12:25:00 45° SW 12:33:57 10° SSE daylight
